Whiteman AFB, MO

11:06 PM CST on November 20, 2017 (GMT -0600)
Whiteman Air Force Base

Weather History for KSZL - December, 2013

Change the Weather History Date:

Monday, December 30, 2013

  Actual Average Record
Temperature  
Mean Temperature 18 °F -  
Max Temperature 27 °F 37 °F 69 °F (2004)
Min Temperature 8 °F 20 °F 6 °F (2000)
Degree Days  
Heating Degree Days 48    
Moisture  
Dew Point 6 °F    
Average Humidity 58    
Maximum Humidity 77    
Minimum Humidity 35    
Precipitation  
Precipitation 0.00 in - - ()
Sea Level Pressure  
Sea Level Pressure 30.31 in    
Wind  
Wind Speed 6 mph (SW)    
Max Wind Speed 13 mph    
Max Gust Speed -    
Visibility 10 miles    
Events      
Averages and records for this station are not official NWS values.
T = Trace of Precipitation, MM = Missing Value Source: NWS Daily Summary

Daily Weather History Graph

Daily Weather History Graph

Search for Another Location

Airport or City:

Trip Planner

Search our weather history database for the weather conditions in past years. The results will help you decide how hot, cold, wet, or windy it might be!

Date:

Astronomy

Dec. 30, 2013 Rise Set
Actual Time 7:32 AM CST 5:01 PM CST
Civil Twilight 7:02 AM CST 5:31 PM CST
Nautical Twilight 6:28 AM CST 6:05 PM CST
Astronomical Twilight 5:56 AM CST 6:37 PM CST
Moon 5:23 AM CST (12/30) 3:35 PM CST (12/30)
Length of Visible Light 10h 29m
Length of Day
9h 29m
Waning Crescent, 4% of the Moon is Illuminated
Dec 30
Waning Crescent
Jan 1
New
Jan 7
First Quarter
Jan 15
Full
Jan 23
Last Quarter

Hourly Weather History & Observations

Time (CST) Temp. Windchill Dew Point Humidity Pressure Visibility Wind Dir Wind Speed Gust Speed Precip Events Conditions
12:58 AM 9.9 °F 0.2 °F 1.2 °F 68% 30.35 in 10.0 mi North 5.8 mph - N/A   Clear
1:58 AM 9.3 °F -0.5 °F 1.8 °F 71% 30.36 in 10.0 mi NNW 5.8 mph - N/A   Clear
2:58 AM 9.0 °F 0.6 °F 1.6 °F 72% 30.36 in 10.0 mi North 4.6 mph - N/A   Clear
3:58 AM 9.1 °F 2.6 °F 2.3 °F 74% 30.37 in 10.0 mi North 3.5 mph - N/A   Clear
4:58 AM 8.6 °F - 2.8 °F 77% 30.36 in 10.0 mi North 2.3 mph - N/A   Clear
5:58 AM 9.7 °F - 2.8 °F 74% 30.37 in 10.0 mi NE 1.2 mph - N/A   Mostly Cloudy
6:58 AM 9.9 °F - 1.9 °F 70% 30.37 in 10.0 mi ENE 2.3 mph - N/A   Clear
7:58 AM 10.9 °F - 1.0 °F 64% 30.36 in 10.0 mi Variable 2.3 mph - N/A   Mostly Cloudy
8:58 AM 12.0 °F 4.1 °F 1.9 °F 64% 30.36 in 10.0 mi ESE 4.6 mph - N/A   Mostly Cloudy
9:58 AM 14.0 °F 5.1 °F 1.8 °F 58% 30.36 in 10.0 mi SSE 5.8 mph - N/A   Mostly Cloudy
10:58 AM 16.0 °F 5.3 °F 3.7 °F 59% 30.33 in 10.0 mi South 8.1 mph - N/A   Mostly Cloudy
11:58 AM 19.0 °F 8.2 °F 5.2 °F 55% 30.29 in 10.0 mi South 9.2 mph - N/A   Mostly Cloudy
12:58 PM 22.1 °F 10.0 °F 5.4 °F 49% 30.27 in 10.0 mi South 12.7 mph - N/A   Overcast
1:58 PM 24.8 °F 16.9 °F 3.6 °F 40% 30.25 in 10.0 mi SW 6.9 mph - N/A   Mostly Cloudy
2:58 PM 27.5 °F 17.4 °F 3.2 °F 35% 30.25 in 10.0 mi SW 11.5 mph - N/A   Mostly Cloudy
3:55 PM 27.1 °F 16.4 °F 5.7 °F 40% 30.23 in 10.0 mi SSW 12.7 mph - N/A   Mostly Cloudy
3:58 PM 27.1 °F 16.4 °F 5.7 °F 40% 30.23 in 10.0 mi SSW 12.7 mph - N/A   Mostly Cloudy
4:58 PM 25.3 °F 15.3 °F 9.7 °F 52% 30.22 in 10.0 mi SSW 10.4 mph - N/A   Clear
5:58 PM 27.5 °F 19.3 °F 9.7 °F 47% 30.25 in 10.0 mi West 8.1 mph - N/A   Overcast
6:58 PM 27.0 °F 18.0 °F 11.3 °F 52% 30.25 in 10.0 mi SW 9.2 mph - N/A   Mostly Cloudy
7:58 PM 26.1 °F 16.2 °F 11.8 °F 55% 30.27 in 10.0 mi SW 10.4 mph - N/A   Scattered Clouds
8:58 PM 25.3 °F 15.3 °F 12.6 °F 58% 30.28 in 10.0 mi WSW 10.4 mph - N/A   Clear
9:58 PM 26.6 °F 16.8 °F 12.7 °F 56% 30.29 in 10.0 mi WSW 10.4 mph - N/A   Clear
10:58 PM 25.3 °F 16.0 °F 13.5 °F 61% 30.31 in 10.0 mi WSW 9.2 mph - N/A   Clear
11:58 PM 24.3 °F 15.4 °F 13.6 °F 64% 30.31 in 10.0 mi West 8.1 mph - N/A   Clear